Temp
83 95 100 95 86 90 80 79 88 84 84 87 87 83 82 82 78 69 88 92 93 94 86 88 80 80 81 80 80 80 80 80 79 79 79 79 79 79 79 80 80 80 81 81 81 80 80 80 80
99 95 98 96 83 78 78 85 83 87 85 87 86 85 83 77 85 81 87 91 94 90 86 86 80 79 80 80 80 79 79 79 79 79 79 79 79 79 79 80 80 80 81 80 80 80 80 79 79
96 97 94 92 88 76 78 86 87 88 88 87 86 89 84 78 86 83 90 92 94 91 90 85 79 79 80 80 80 79 79 79 79 79 79 79 79 79 79 80 80 80 80 80 80 79 79 78 78
98 98 96 85 81 84 85 88 90 88 89 90 90 82 83 82 86 89 90 92 92 92 93 82 79 79 79 80 79 79 79 79 79 79 79 79 79 79 79 80 80 80 80 80 79 78 78 78 77
100 98 88 85 83 86 89 91 92 89 89 89 89 81 79 76 83 89 90 92 92 95 90 88 79 79 80 80 79 79 79 79 79 79 79 79 79 79 79 79 79 79 79 79 78 78 77 77 76
94 96 84 81 83 87 88 91 91 90 90 89 87 82 76 78 77 87 92 93 95 93 87 89 81 79 79 80 78 78 79 79 79 79 79 79 79 78 79 79 79 79 79 78 78 77 76 75 75
91 90 83 83 83 83 85 92 89 89 89 85 89 79 79 78 79 90 92 92 92 94 93 88 87 84 79 78 78 78 78 78 78 78 78 78 78 78 78 78 78 78 78 77 76 76 75 74 74
96 93 84 85 83 79 86 89 91 88 78 89 90 78 77 78 85 93 87 93 89 90 90 84 84 85 84 84 78 78 78 78 78 78 78 78 78 78 78 77 78 78 78 77 76 74 73 73 72
96 88 83 83 84 81 88 85 87 89 81 83 85 85 82 82 88 85 85 81 82 82 84 86 84 82 82 81 81 78 78 78 78 79 77 78 90 87 84 79 78 78 77 76 74 73 72 73 73
92 89 81 84 88 84 85 86 85 84 79 69 69 73 79 81 79 76 76 75 74 74 74 79 83 83 83 81 81 74 79 88 89 88 85 89 87 88 86 81 77 76 76 74 73 72 73 79 87
85 78 83 83 87 87 82 81 85 81 70 70 65 66 71 74 70 73 73 71 73 74 76 81 83 84 87 81 80 68 74 80 84 84 85 86 87 87 87 88 86 84 77 84 81 83 86 81 82
80 82 84 81 84 83 79 79 70 74 65 69 68 69 67 66 65 67 68 74 76 76 78 81 84 84 82 88 86 86 85 84 88 88 83 83 85 85 84 87 88 83 87 84 85 85 80 80 80
81 80 82 83 82 80 78 71 67 62 67 69 68 68 65 64 64 67 68 71 74 72 75 79 80 79 81 81 80 78 77 79 84 85 81 82 82 81 82 82 84 83 82 81 80 72 72 74 80
83 82 81 82 81 80 74 69 67 64 69 66 66 65 65 64 66 67 67 66 69 73 74 77 77 75 77 76 76 76 76 76 78 77 77 78 78 73 76 71 76 73 74 65 65 66 70 78 80
84 79 81 80 81 79 82 67 59 65 68 65 65 65 65 66 67 63 64 65 65 71 72 74 75 75 74 74 72 75 69 69 67 68 70 71 69 67 66 62 62 61 61 61 61 67 72 78 79
83 83 77 78 79 79 80 55 65 71 68 64 64 64 64 62 62 63 64 64 65 66 66 67 67 66 67 67 68 69 69 65 66 68 65 69 64 63 62 62 61 63 61 60 60 65 64 70 72
81 75 75 73 80 78 78 58 62 69 69 67 67 63 63 60 61 61 62 63 64 64 65 65 69 70 71 71 71 66 65 66 61 64 60 62 63 62 60 61 61 61 60 59 59 62 60 62 62
74 73 73 71 74 76 67 59 65 68 70 68 68 64 60 59 58 60 62 65 67 70 70 70 71 71 73 75 75 76 76 75 73 71 68 64 62 63 60 60 62 61 62 60 61 57 60 59 62
81 76 70 71 74 71 68 64 65 68 70 66 65 63 61 60 63 66 67 70 70 71 71 70 70 70 72 73 72 72 72 74 75 74 72 72 73 74 72 74 74 68 67 67 65 64 59 66 70
80 74 70 69 72 71 67 61 62 66 69 66 63 64 64 68 69 69 70 72 72 71 71 71 71 70 71 73 71 71 71 73 74 75 73 73 72 72 72 71 72 72 70 66 65 64 63 61 68
78 76 71 70 69 71 66 61 57 62 65 65 67 68 71 69 67 69 71 71 73 71 71 71 71 70 70 69 72 71 73 73 73 72 73 72 72 71 71 69 69 69 70 68 66 64 62 66 70
74 78 75 70 69 67 71 62 65 61 59 60 65 67 69 70 70 68 71 71 71 72 74 72 71 70 71 69 69 66 68 67 69 71 71 71 71 70 69 69 69 68 70 67 65 67 67 66 64
74 78 76 73 71 67 66 63 67 70 58 57 62 63 65 69 70 70 70 71 72 73 73 72 71 70 70 69 68 69 66 69 71 70 67 67 68 69 69 68 68 67 69 68 65 65 65 67 64
79 74 73 74 72 62 66 65 60 64 65 65 62 62 66 67 69 69 71 72 73 75 74 73 71 69 70 70 69 67 65 64 65 66 67 68 69 69 66 67 66 65 65 65 66 65 65 63 65
77 74 64 62 62 61 66 63 56 60 64 65 62 62 64 66 60 62 71 73 73 71 71 70 71 69 70 69 68 67 65 63 63 63 64 64 66 68 64 65 65 65 66 66 66 65 64 65 65
73 71 64 51 56 61 67 59 49 61 65 67 66 63 62 54 58 62 71 70 72 71 69 67 70 68 69 68 66 67 65 64 65 64 65 65 62 63 64 65 65 65 66 65 65 65 65 64 64
73 69 73 63 67 61 67 56 58 58 57 60 61 63 55 58 64 65 67 69 62 68 67 69 68 68 67 65 63 62 61 61 62 62 62 64 62 62 64 64 64 64 65 65 61 61 61 62 63
74 75 63 67 51 50 62 57 50 55 54 56 60 55 59 66 63 65 66 65 63 67 70 67 65 62 63 63 62 62 60 60 58 58 57 59 60 62 62 63 63 63 63 63 62 60 53 53 55
70 68 67 64 62 54 52 49 60 59 61 60 62 64 65 65 64 64 61 63 69 70 69 63 64 61 63 62 62 61 59 58 58 57 56 59 59 60 60 61 60 61 60 61 60 56 54 53 53
71 65 65 59 53 60 58 47 66 65 65 64 63 64 65 65 65 64 67 68 67 67 63 63 61 62 63 61 58 58 60 60 58 56 54 54 53 55 60 60 56 54 55 60 60 60 59 59 60
MSLP
1011.66 1010.92 1010.14 1009.05 1006.79 1004.43 1004.88 1006.34 1006.24 1006.49 1006.91 1008.10 1008.63 1008.92 1009.41 1010.29 1010.80 1012.41 1013.68 1013.70 1013.63 1013.92 1015.30 1015.91 1016.53 1016.65 1016.80 1017.02 1017.15 1017.29 1017.48 1017.55 1017.67 1017.81 1017.93 1018.04 1018.02 1018.11 1018.16 1018.24 1018.47 1018.59 1018.41 1018.51 1018.66 1018.67 1018.74 1018.77 1018.88
1010.54 1010.42 1009.41 1006.92 1004.80 1003.55 1005.37 1005.92 1006.18 1006.84 1008.01 1008.68 1009.09 1009.39 1009.93 1011.32 1012.49 1013.49 1013.52 1014.14 1013.86 1014.91 1015.69 1016.04 1016.87 1017.01 1017.24 1017.56 1017.82 1017.89 1017.84 1017.86 1018.05 1018.15 1018.25 1018.30 1018.38 1018.53 1018.62 1018.62 1018.58 1018.71 1018.82 1018.85 1019.03 1019.12 1019.18 1019.16 1019.18
1010.55 1009.86 1007.65 1005.48 1004.16 1004.22 1005.08 1005.69 1006.42 1007.44 1008.23 1008.26 1008.84 1009.91 1011.00 1012.68 1013.13 1013.87 1014.08 1014.34 1014.38 1015.11 1015.81 1016.60 1017.18 1017.40 1017.64 1017.98 1018.01 1018.15 1018.29 1018.38 1018.41 1018.37 1018.61 1018.90 1018.95 1019.08 1019.03 1019.10 1019.09 1019.13 1019.31 1019.27 1019.33 1019.45 1019.50 1019.55 1019.47
1009.57 1008.53 1007.33 1005.11 1004.17 1005.19 1005.19 1005.86 1006.25 1007.11 1007.98 1008.56 1009.08 1010.48 1013.00 1014.78 1013.77 1014.34 1014.82 1014.71 1014.92 1015.21 1015.69 1017.23 1017.63 1017.77 1017.99 1018.14 1018.42 1018.43 1018.62 1018.76 1018.88 1018.87 1018.80 1018.89 1019.11 1019.27 1019.33 1019.40 1019.44 1019.41 1019.59 1019.64 1019.67 1019.61 1019.68 1019.76 1019.74
1008.89 1007.17 1005.27 1004.57 1004.74 1005.62 1005.99 1006.19 1006.40 1006.72 1007.63 1008.50 1009.30 1011.07 1013.25 1015.74 1015.55 1015.00 1015.16 1015.13 1015.00 1014.99 1016.26 1017.17 1017.92 1018.12 1018.24 1018.34 1018.60 1018.81 1019.02 1019.12 1019.21 1019.42 1019.42 1019.41 1019.40 1019.46 1019.69 1019.67 1019.71 1019.77 1019.95 1020.04 1020.05 1020.14 1020.23 1020.17 1020.08
1007.13 1006.51 1004.39 1003.76 1004.95 1005.90 1006.57 1006.67 1006.80 1006.94 1008.11 1009.05 1010.04 1011.61 1014.52 1016.27 1016.43 1015.45 1015.28 1015.24 1015.07 1015.74 1016.70 1016.95 1018.03 1018.26 1018.42 1018.64 1018.81 1018.99 1019.24 1019.43 1019.51 1019.61 1019.81 1019.95 1019.90 1019.96 1020.03 1020.10 1020.11 1020.28 1020.25 1020.32 1020.22 1020.37 1020.42 1020.40 1020.33
1006.55 1005.36 1004.58 1004.61 1005.24 1006.15 1006.98 1007.17 1007.16 1007.80 1008.71 1009.96 1010.59 1011.96 1014.78 1016.00 1016.67 1015.59 1015.59 1016.01 1015.75 1015.98 1016.29 1017.30 1017.76 1018.22 1018.71 1018.81 1019.06 1019.19 1019.43 1019.59 1019.70 1019.84 1019.91 1020.10 1020.25 1020.34 1020.31 1020.35 1020.39 1020.48 1020.44 1020.51 1020.51 1020.58 1020.75 1020.70 1020.56
1006.95 1005.59 1004.92 1005.26 1005.40 1007.00 1007.83 1008.17 1008.65 1009.02 1011.24 1011.54 1011.59 1012.41 1014.33 1016.15 1016.38 1015.69 1016.64 1016.04 1016.88 1017.03 1017.25 1018.32 1018.35 1018.34 1018.63 1018.76 1019.23 1019.40 1019.54 1019.75 1019.84 1019.90 1020.00 1020.14 1020.31 1020.41 1020.49 1020.41 1020.53 1020.58 1020.61 1020.71 1020.93 1020.85 1020.93 1020.78 1020.75
1007.50 1005.44 1005.19 1006.07 1006.20 1007.73 1008.44 1008.87 1010.47 1011.25 1012.27 1012.94 1013.24 1013.97 1015.67 1016.71 1016.22 1016.92 1016.94 1017.72 1017.98 1018.58 1018.63 1018.52 1018.59 1018.96 1018.97 1019.13 1019.41 1019.78 1019.92 1019.96 1019.92 1020.03 1020.18 1020.05 1019.13 1019.63 1020.00 1020.28 1020.50 1020.68 1020.73 1020.77 1020.92 1020.79 1020.74 1020.65 1020.31
1006.76 1005.85 1007.26 1008.44 1007.97 1008.69 1009.53 1009.91 1010.88 1011.74 1013.37 1015.40 1016.27 1017.05 1017.16 1017.33 1017.61 1017.93 1018.26 1018.70 1019.19 1019.51 1019.71 1019.43 1018.99 1018.92 1019.01 1019.41 1019.76 1020.17 1020.01 1019.37 1019.11 1019.16 1019.45 1019.08 1019.40 1019.40 1019.55 1020.11 1020.51 1020.67 1020.78 1021.00 1021.00 1020.79 1020.54 1019.78 1019.31
1008.39 1008.46 1008.67 1009.36 1009.52 1010.05 1011.05 1011.82 1012.15 1013.15 1015.30 1016.64 1017.53 1018.29 1018.52 1018.66 1019.25 1019.16 1019.49 1019.76 1019.95 1020.21 1020.02 1019.39 1019.09 1019.11 1018.82 1019.28 1020.00 1020.48 1020.65 1019.95 1019.70 1019.66 1019.56 1019.43 1019.29 1019.23 1019.33 1019.12 1019.38 1019.85 1020.66 1020.14 1020.24 1019.80 1019.47 1019.94 1019.92
1008.87 1009.97 1009.68 1010.42 1011.06 1011.30 1012.27 1013.68 1015.13 1015.74 1017.78 1018.58 1019.19 1019.46 1019.84 1020.12 1020.47 1020.50 1020.74 1020.46 1020.18 1020.39 1020.34 1019.96 1019.63 1019.40 1019.60 1018.77 1019.02 1019.57 1019.59 1019.71 1019.14 1019.33 1019.81 1019.52 1019.26 1019.17 1019.36 1018.80 1018.92 1019.71 1019.23 1019.54 1019.57 1019.52 1020.28 1020.31 1020.14
1009.56 1010.57 1011.13 1011.58 1012.17 1013.01 1014.00 1015.12 1016.65 1018.20 1019.08 1019.64 1020.14 1020.32 1020.68 1021.22 1021.46 1021.43 1021.61 1021.55 1021.22 1021.26 1021.14 1020.70 1020.63 1020.50 1020.19 1020.09 1020.26 1020.45 1020.54 1020.30 1020.06 1019.89 1020.21 1019.90 1019.63 1019.65 1019.74 1019.53 1019.43 1019.57 1019.78 1019.85 1020.20 1021.08 1020.95 1020.77 1019.85
1010.20 1010.93 1011.59 1012.06 1012.57 1013.49 1014.49 1016.32 1017.40 1019.33 1019.76 1019.96 1020.50 1021.12 1021.43 1021.69 1021.96 1022.08 1022.26 1022.34 1022.12 1021.71 1021.68 1021.55 1021.45 1021.59 1021.44 1021.47 1021.33 1021.17 1021.01 1020.90 1020.72 1020.86 1021.13 1021.08 1020.91 1021.35 1020.70 1021.37 1020.89 1020.94 1021.50 1022.26 1021.96 1022.12 1021.34 1019.96 1019.68
1010.31 1010.45 1011.20 1012.13 1012.67 1013.40 1013.88 1016.52 1018.76 1019.89 1020.03 1020.37 1021.09 1021.53 1021.92 1022.26 1022.58 1023.11 1023.35 1023.17 1023.07 1022.55 1022.43 1022.12 1021.81 1021.91 1022.06 1022.08 1022.21 1021.97 1022.40 1022.25 1022.55 1022.29 1022.18 1022.10 1022.19 1022.23 1022.44 1022.50 1022.28 1022.00 1021.87 1022.34 1022.17 1021.97 1021.16 1019.78 1019.81
1009.17 1009.54 1009.67 1012.00 1012.54 1013.16 1013.71 1017.10 1018.91 1019.38 1019.87 1020.62 1021.34 1021.77 1022.29 1022.94 1023.53 1023.81 1023.85 1023.80 1023.65 1023.38 1023.24 1023.32 1023.23 1023.30 1023.27 1023.31 1022.95 1022.84 1022.78 1022.69 1022.78 1022.71 1022.87 1022.51 1022.51 1022.38 1022.25 1022.09 1021.92 1021.79 1022.12 1022.19 1022.25 1021.52 1021.48 1021.05 1020.44
1008.56 1008.55 1010.01 1011.66 1012.64 1013.08 1013.85 1017.30 1019.26 1019.62 1019.88 1020.40 1021.14 1021.97 1022.72 1023.40 1023.92 1024.30 1024.42 1024.40 1024.29 1024.21 1024.06 1023.85 1023.48 1023.25 1022.98 1022.96 1023.08 1023.39 1023.29 1023.12 1023.19 1022.96 1022.98 1022.86 1022.65 1022.61 1022.44 1022.59 1022.08 1021.95 1022.02 1022.26 1022.36 1022.28 1021.97 1020.98 1020.76
1007.58 1009.25 1010.59 1011.52 1013.37 1013.66 1015.44 1017.61 1018.86 1019.57 1019.52 1020.18 1020.94 1022.19 1023.13 1023.76 1024.38 1024.66 1024.68 1024.56 1024.37 1024.20 1024.14 1023.99 1023.58 1023.52 1023.09 1022.74 1022.37 1022.10 1021.95 1021.94 1022.41 1022.32 1022.49 1022.69 1022.76 1022.12 1022.14 1022.23 1021.87 1021.78 1021.47 1022.30 1021.86 1022.02 1021.40 1020.99 1020.54
1008.33 1009.46 1011.12 1012.79 1013.92 1014.50 1015.60 1017.28 1018.47 1019.10 1019.46 1020.53 1021.42 1022.22 1022.96 1023.59 1024.03 1024.24 1024.38 1023.99 1023.89 1023.99 1023.83 1023.80 1023.71 1023.91 1023.41 1023.01 1022.72 1022.45 1022.11 1021.74 1021.43 1021.56 1021.80 1021.72 1021.41 1021.06 1020.97 1020.50 1019.95 1020.68 1020.50 1020.99 1021.01 1021.42 1021.17 1020.27 1019.87
1008.70 1009.69 1011.26 1013.07 1014.01 1014.52 1015.78 1017.20 1018.75 1019.14 1019.58 1020.77 1021.57 1021.92 1022.45 1022.67 1022.96 1023.54 1023.66 1023.80 1023.73 1023.64 1023.73 1023.76 1023.87 1023.96 1023.75 1023.38 1023.28 1023.14 1022.68 1022.02 1021.85 1021.56 1021.85 1021.62 1021.68 1021.26 1020.91 1020.68 1020.05 1019.59 1019.91 1020.11 1020.29 1020.48 1020.15 1020.38 1020.15
1009.02 1009.52 1011.09 1011.90 1013.80 1014.53 1015.70 1016.46 1018.27 1019.53 1020.31 1020.89 1021.39 1021.68 1021.73 1022.15 1022.60 1022.90 1023.22 1023.56 1023.46 1023.53 1023.64 1023.74 1023.85 1023.96 1024.00 1023.98 1023.16 1022.99 1022.33 1021.80 1021.47 1021.62 1021.28 1021.53 1021.41 1021.26 1020.94 1020.91 1020.51 1020.14 1019.64 1019.40 1019.59 1019.90 1020.15 1019.39 1018.90
1008.63 1010.35 1011.06 1012.13 1012.54 1011.98 1014.15 1013.78 1015.43 1018.01 1019.88 1020.79 1021.05 1021.29 1021.50 1022.04 1022.69 1023.09 1022.92 1023.17 1023.36 1023.46 1023.48 1023.61 1023.84 1023.93 1023.79 1023.90 1023.51 1023.50 1022.66 1022.09 1022.18 1021.71 1021.53 1021.59 1021.21 1021.25 1021.01 1020.73 1020.47 1020.06 1019.60 1019.44 1019.48 1019.41 1019.26 1019.24 1018.86
1010.25 1010.77 1010.96 1011.59 1011.65 1012.55 1013.08 1013.94 1014.24 1016.16 1018.69 1020.34 1021.02 1021.69 1022.12 1022.52 1022.63 1022.99 1023.10 1023.27 1023.32 1023.32 1023.49 1023.68 1023.93 1023.91 1023.93 1023.93 1023.80 1023.37 1022.93 1022.56 1022.09 1021.91 1021.79 1021.30 1020.89 1020.76 1020.79 1020.61 1020.18 1019.97 1019.48 1019.23 1019.41 1019.34 1019.38 1019.21 1019.18
1010.94 1011.11 1011.18 1011.23 1011.08 1010.81 1011.97 1013.55 1014.50 1016.44 1017.87 1019.15 1021.02 1021.91 1022.37 1022.94 1023.28 1023.39 1023.16 1023.19 1023.09 1023.01 1023.32 1023.58 1023.81 1023.96 1023.94 1023.84 1023.63 1023.49 1023.40 1023.16 1022.63 1022.10 1021.60 1020.97 1020.68 1020.44 1020.90 1020.59 1020.36 1020.16 1019.81 1019.49 1019.20 1019.16 1019.20 1019.26 1019.07
1010.93 1010.34 1009.85 1009.71 1009.66 1009.90 1012.35 1013.95 1017.07 1018.59 1019.40 1019.88 1020.96 1022.28 1023.11 1023.72 1024.44 1024.40 1023.02 1022.89 1023.14 1023.60 1023.81 1024.05 1023.74 1023.81 1023.73 1023.73 1023.66 1023.57 1023.44 1023.25 1022.72 1022.49 1021.94 1021.68 1020.75 1020.36 1020.70 1020.45 1020.30 1020.02 1019.66 1019.42 1019.25 1019.12 1019.08 1019.03 1018.95
1011.02 1011.47 1010.74 1010.65 1010.40 1011.00 1012.45 1014.50 1019.01 1020.23 1020.70 1020.99 1021.93 1023.03 1023.77 1024.47 1024.74 1024.48 1023.45 1023.91 1023.80 1023.99 1024.41 1024.21 1023.84 1023.86 1023.82 1023.71 1023.88 1023.54 1023.53 1023.28 1022.90 1022.64 1022.28 1021.71 1021.57 1021.13 1020.80 1020.55 1020.34 1020.06 1019.83 1019.65 1019.43 1019.28 1019.04 1019.01 1019.01
1011.43 1011.44 1012.57 1012.14 1011.38 1011.86 1012.73 1017.08 1019.56 1020.93 1021.59 1022.05 1022.73 1023.28 1024.14 1024.42 1024.45 1024.39 1024.25 1024.38 1024.92 1024.56 1024.65 1024.25 1024.14 1024.00 1024.03 1024.36 1024.25 1024.03 1024.00 1023.59 1023.23 1023.05 1022.72 1022.06 1021.84 1021.48 1020.94 1020.65 1020.45 1020.25 1020.07 1019.90 1020.07 1019.90 1019.64 1019.24 1019.25
1012.98 1013.39 1012.65 1012.19 1012.28 1012.53 1013.08 1016.08 1019.32 1020.63 1021.63 1022.44 1022.74 1023.63 1023.95 1023.98 1024.57 1024.51 1024.87 1025.21 1025.22 1024.92 1024.30 1024.48 1024.55 1024.78 1024.62 1024.60 1024.50 1024.24 1024.21 1024.14 1024.02 1023.70 1023.13 1022.61 1022.05 1021.57 1021.03 1020.80 1020.68 1020.55 1020.44 1020.37 1020.28 1020.45 1020.56 1020.30 1020.18
1013.52 1013.42 1013.94 1014.38 1014.34 1014.00 1014.51 1017.97 1020.09 1020.72 1021.31 1021.96 1022.45 1023.04 1023.47 1024.20 1024.32 1024.89 1025.44 1025.37 1024.75 1024.53 1024.43 1024.81 1025.20 1025.34 1024.84 1024.86 1024.78 1024.66 1024.67 1024.30 1023.84 1023.63 1023.44 1022.88 1022.34 1021.89 1021.55 1021.30 1021.15 1021.00 1020.89 1020.62 1020.81 1021.02 1021.00 1020.72 1020.50
1015.52 1015.44 1015.31 1014.63 1015.16 1015.89 1016.33 1019.10 1020.18 1020.86 1021.59 1022.06 1022.67 1023.38 1024.01 1024.40 1024.88 1025.28 1024.90 1024.69 1024.83 1024.87 1025.16 1025.52 1025.68 1025.37 1025.17 1025.32 1025.43 1025.20 1024.60 1024.33 1024.05 1023.98 1023.88 1023.74 1023.34 1022.67 1022.00 1021.87 1021.99 1021.93 1021.69 1021.25 1021.05 1020.80 1020.89 1020.66 1020.27
Wind_Speed
11 9 5 7 9 3 12 10 1 7 8 7 6 5 12 17 12 7 2 8 6 13 12 14 10 10 9 10 12 13 12 13 15 15 15 15 14 14 15 15 15 15 17 18 18 18 18 18 17
4 5 6 6 8 12 11 6 9 9 9 9 8 5 8 16 14 7 10 7 10 9 8 11 11 11 10 9 8 10 13 14 14 14 14 14 13 14 14 15 15 16 17 18 18 18 17 17 17
6 7 6 5 4 11 11 7 9 10 7 2 6 12 7 10 13 6 8 9 10 9 8 11 10 11 10 9 9 11 11 12 13 14 13 12 13 12 13 13 14 15 16 17 17 16 16 16 16
6 6 6 9 9 10 9 7 9 11 7 4 8 12 12 14 6 8 8 9 8 9 9 12 9 10 9 10 8 12 11 10 10 11 13 13 13 11 12 13 13 15 15 15 14 14 14 14 14
7 4 5 4 13 9 2 2 8 10 9 8 4 11 13 10 10 9 10 8 7 8 12 10 9 9 9 9 9 11 9 9 9 9 11 12 11 11 11 12 12 13 13 13 13 12 13 13 13
6 4 8 10 12 9 6 1 6 5 10 10 13 11 11 6 9 4 8 7 6 9 8 10 10 8 7 9 9 11 9 8 9 9 10 10 10 10 10 10 10 10 10 11 11 11 11 11 11
7 7 7 6 10 11 6 3 4 7 11 14 5 10 9 9 7 4 9 9 4 8 6 11 5 10 7 7 9 11 10 9 9 10 9 9 9 9 9 9 8 8 8 9 9 9 9 9 10
5 6 6 5 7 13 5 8 11 11 9 8 8 6 9 10 7 10 9 8 12 8 13 8 7 7 4 6 6 11 11 9 9 10 9 9 9 8 7 8 7 6 7 8 7 8 7 6 5
5 6 7 10 9 9 3 12 12 13 16 18 14 16 17 12 8 12 6 13 10 11 10 8 8 6 6 4 7 8 9 8 9 9 6 9 6 8 9 8 5 5 8 7 6 6 3 4 7
6 5 9 9 6 10 11 11 11 10 17 14 17 15 13 11 10 10 10 9 11 11 10 7 7 5 3 5 8 9 6 4 3 5 6 5 2 3 6 2 6 6 6 5 5 5 8 7 8
8 8 5 8 10 11 17 18 4 15 12 12 12 15 12 15 12 11 11 11 9 7 6 6 6 5 3 7 6 5 4 3 4 4 5 2 3 5 6 4 7 6 9 8 9 6 5 7 6
12 15 10 4 7 5 12 16 21 19 11 15 15 15 16 15 12 14 10 11 12 12 13 12 11 9 9 6 5 3 2 2 3 2 5 4 5 3 5 5 3 4 4 4 3 6 6 7 7
17 13 16 16 19 20 20 19 16 16 14 14 16 17 16 13 13 12 11 11 12 13 12 14 13 12 10 7 6 5 5 5 5 3 7 6 5 3 4 3 5 5 5 5 7 7 6 9 7
13 18 17 13 11 15 20 15 6 9 10 14 16 14 15 14 12 12 13 12 12 11 12 12 13 13 12 11 11 8 7 5 5 6 8 8 7 7 5 7 5 6 6 5 5 7 6 8 7
20 17 14 9 9 17 10 18 10 8 7 13 14 13 13 13 13 14 11 11 10 11 10 9 10 11 10 10 9 7 5 7 8 8 9 9 8 7 6 3 3 2 2 4 4 7 9 6 6
8 6 6 6 4 3 7 5 6 5 9 11 14 11 13 13 13 11 10 11 9 10 12 12 11 12 12 10 9 7 7 6 5 6 6 9 8 8 5 4 4 4 3 1 3 4 5 8 6
7 7 12 9 3 0 4 9 4 4 6 9 10 11 12 13 12 11 10 9 10 10 10 10 10 11 10 10 7 4 5 4 2 2 2 5 4 6 4 6 4 2 1 2 2 4 3 3 3
12 8 6 6 8 9 13 10 7 5 4 7 10 12 11 10 10 8 8 8 9 9 10 12 11 11 8 7 5 6 6 4 2 3 4 3 4 4 3 5 6 4 6 5 4 4 2 2 6
8 10 13 9 6 4 8 10 8 6 6 8 7 7 8 10 9 8 8 7 8 9 9 11 11 10 8 8 9 8 9 6 6 4 6 6 7 7 6 7 7 7 6 9 7 6 6 7 4
8 10 9 6 4 4 7 7 7 5 8 8 6 8 6 6 10 8 8 7 8 9 10 10 10 9 8 9 7 7 7 7 6 5 7 6 9 8 8 7 9 8 8 9 9 7 3 2 7
3 7 7 3 8 4 10 12 10 8 7 6 5 5 6 6 7 7 8 7 9 9 9 9 9 10 9 10 8 8 8 7 6 8 7 9 7 8 8 8 8 9 9 7 7 7 9 7 6
3 3 5 11 11 4 13 5 16 15 10 8 7 6 5 6 7 6 6 7 8 8 8 9 9 9 9 10 10 10 8 9 7 7 8 10 9 8 9 7 8 8 8 6 6 7 8 7 6
7 1 5 10 12 6 15 8 13 12 11 10 7 5 5 4 4 8 8 8 6 7 8 8 9 9 9 10 10 10 11 10 9 9 11 9 6 5 7 8 8 8 7 7 6 6 6 5 6
7 3 6 9 9 13 9 5 10 3 5 3 10 7 7 5 5 7 5 4 5 6 8 8 9 9 9 11 10 10 12 11 10 10 10 9 9 5 7 9 8 7 6 5 5 5 6 6 5
6 8 11 9 7 6 6 7 13 16 12 9 9 9 8 8 9 10 8 9 8 9 10 9 10 11 12 12 11 12 12 12 12 12 10 12 9 8 7 9 7 6 7 7 7 6 5 5 5
4 9 9 14 12 12 6 4 7 9 7 8 11 10 9 5 6 9 8 9 11 10 11 11 12 14 13 12 12 12 12 9 9 9 9 9 9 9 9 8 7 7 6 6 7 6 5 4 3
9 6 7 10 12 10 4 13 9 5 4 5 5 5 3 3 5 7 8 9 8 10 9 11 12 13 13 14 11 11 9 11 11 13 11 10 9 8 9 8 8 8 8 9 8 8 8 4 2
9 6 8 5 8 9 3 7 7 10 4 3 5 3 4 1 3 5 8 8 7 7 10 9 12 14 15 13 10 10 12 12 11 11 12 12 11 11 9 8 8 7 8 9 8 9 7 6 5
9 7 5 5 6 7 8 6 4 7 5 2 3 1 5 2 5 7 8 6 8 11 11 12 13 11 11 11 12 12 11 9 9 9 11 11 12 8 9 10 9 9 9 8 8 7 5 4 3
8 7 7 7 3 4 6 5 5 5 6 4 5 7 6 6 8 3 7 10 12 13 13 11 9 11 10 10 11 9 12 13 11 10 8 10 12 8 7 6 7 7 6 6 8 4 5 6 6
Wind_Direction
164 198 240 239 226 136 88 82 184 84 67 46 53 4 49 31 13 43 170 114 129 113 131 155 143 137 129 130 134 131 124 121 121 121 122 124 122 118 112 109 103 98 97 89 83 81 77 70 61
206 211 226 278 258 99 82 138 82 73 91 99 96 109 49 76 46 93 128 133 138 111 145 142 143 131 125 125 125 124 125 126 127 129 133 128 118 114 113 112 109 104 97 90 87 81 77 72 64
235 246 267 284 328 78 100 102 111 110 130 228 109 51 27 10 48 84 84 134 116 131 141 120 133 127 134 142 138 123 121 127 132 132 126 114 107 107 111 110 106 101 95 89 86 80 76 72 64
217 199 220 254 99 87 92 115 132 146 106 84 87 83 101 19 21 63 103 127 128 136 115 116 130 126 133 146 143 126 130 133 132 130 123 120 117 117 118 111 106 105 99 92 89 83 78 72 65
229 246 228 162 93 95 87 80 173 160 107 106 93 93 83 46 33 91 103 126 133 117 102 116 119 124 140 148 142 127 134 130 126 122 120 118 111 111 113 114 115 110 101 89 82 76 71 60 52
224 277 223 122 95 90 65 226 204 97 103 106 90 91 74 85 69 90 108 108 102 99 131 139 125 128 153 137 146 133 130 124 115 107 108 105 104 106 108 105 106 104 101 93 86 82 74 61 46
292 258 81 103 119 71 70 116 165 128 97 55 92 75 95 94 96 115 94 93 61 70 89 62 76 129 129 133 149 126 119 112 106 103 108 113 110 109 104 104 105 111 114 105 94 92 73 53 39
291 274 153 55 65 68 84 87 59 48 56 99 344 117 131 114 128 107 72 74 75 66 58 45 55 41 66 142 136 116 113 117 116 117 117 127 130 128 127 139 122 129 133 109 99 84 64 48 35
281 243 90 45 31 89 122 106 81 77 77 58 57 75 95 120 115 86 84 59 61 54 42 37 49 25 71 113 108 130 126 128 134 139 125 177 181 179 180 80 118 136 135 120 114 105 85 262 196
300 24 46 17 39 82 71 86 110 123 93 82 83 89 102 95 100 97 87 69 55 44 32 5 31 53 32 75 77 27 3 192 166 179 175 216 158 228 311 115 171 148 144 138 154 179 227 259 347
54 9 331 39 97 97 93 65 92 121 69 78 99 84 88 82 67 82 81 85 77 62 48 11 44 23 351 119 127 139 245 218 190 215 245 208 249 219 226 227 187 191 184 218 201 217 323 353 338
106 51 61 72 110 88 84 87 64 62 82 79 77 78 77 72 67 74 73 50 60 48 43 33 36 29 24 12 35 72 243 244 251 63 306 270 257 232 284 277 283 252 244 337 294 327 358 319 312
105 84 85 91 91 85 81 71 79 72 83 84 77 75 78 79 80 83 80 60 60 57 49 49 42 38 28 34 40 39 15 18 352 13 31 355 314 336 293 3 290 337 343 358 5 2 329 294 288
111 108 96 98 94 89 87 73 71 66 92 84 77 77 79 86 94 83 67 62 57 61 52 48 52 49 49 44 35 33 23 19 35 48 30 35 30 9 7 21 1 36 4 359 353 311 273 298 308
132 120 100 93 123 126 105 61 73 87 86 89 89 87 81 78 72 69 70 66 50 44 53 43 48 50 44 44 52 55 55 53 25 10 23 18 9 9 349 338 323 348 28 320 294 304 283 285 308
171 222 142 61 187 36 245 109 53 112 110 90 98 101 95 79 73 72 70 64 53 54 48 39 40 44 37 31 24 37 41 33 35 25 34 11 14 11 351 288 268 265 241 285 256 283 329 314 317
199 91 118 88 28 155 309 124 144 104 115 105 97 105 90 82 75 69 65 67 63 61 59 54 50 43 36 37 38 38 37 39 52 18 350 351 349 343 333 312 295 310 261 205 254 275 297 276 271
122 129 88 86 58 84 91 124 129 154 163 122 113 85 89 81 79 87 96 101 89 81 69 58 46 33 34 23 12 8 3 351 43 355 322 290 269 279 256 259 267 262 216 225 201 249 277 287 285
85 103 111 111 103 95 128 145 151 155 148 116 105 110 126 113 131 117 127 118 111 99 76 53 45 32 13 11 355 350 345 337 331 345 346 327 339 322 298 284 263 234 244 235 214 216 226 239 298
107 121 112 114 178 225 155 137 144 182 123 127 133 125 113 114 103 86 79 73 72 67 53 42 34 28 17 6 355 346 341 338 328 360 322 332 330 322 305 323 306 295 285 254 246 217 240 264 242
56 18 167 56 159 161 177 179 178 158 145 148 125 174 121 105 109 91 82 58 44 43 35 30 22 19 25 359 357 357 335 341 351 345 333 357 315 313 312 312 302 306 293 310 253 216 203 253 220
69 4 188 165 202 325 204 335 186 163 175 194 190 169 142 110 78 111 74 45 34 24 21 17 17 14 11 3 349 348 334 338 338 322 1 309 328 317 305 307 304 301 311 297 281 239 237 242 279
52 205 215 199 243 259 182 253 97 160 184 187 205 151 120 102 52 58 40 23 26 18 12 21 11 3 2 348 344 333 348 333 333 333 336 310 317 308 321 314 302 297 306 320 296 262 251 269 275
129 176 231 219 252 248 94 281 76 77 296 132 150 118 106 71 64 39 22 358 9 8 15 6 360 351 345 339 338 342 334 330 331 340 312 340 319 358 323 327 325 323 315 310 310 300 274 258 287
239 298 308 284 276 340 81 272 40 44 38 27 128 113 88 65 29 311 315 357 11 15 9 347 353 338 342 339 341 336 332 322 322 335 334 324 330 335 333 332 337 326 328 336 339 324 285 268 270
342 328 323 312 321 327 148 358 68 34 39 54 75 101 97 102 249 273 333 353 352 0 3 330 340 338 341 343 335 331 336 337 331 334 333 331 334 326 332 333 342 343 348 354 346 335 321 316 249
356 333 341 284 264 257 66 107 108 110 68 64 103 118 133 212 266 309 336 14 360 353 317 343 345 341 355 341 337 344 342 336 345 342 334 336 333 330 342 347 4 13 17 26 32 23 357 333 354
11 4 305 284 296 314 98 67 40 11 86 147 148 138 228 235 321 343 16 19 339 312 338 354 356 5 354 354 354 357 359 359 349 333 324 325 329 336 343 10 14 23 33 43 23 48 15 30 26
347 2 330 283 317 317 331 75 39 6 22 106 105 158 44 39 28 33 38 298 333 339 349 20 10 340 349 357 1 356 355 323 324 341 350 341 333 348 17 30 26 26 23 30 53 41 21 29 4
50 13 347 319 41 350 279 77 33 24 46 50 57 75 61 44 46 29 336 348 352 347 11 5 343 347 355 3 5 343 356 3 358 356 3 13 5 351 11 40 41 17 6 2 358 28 16 2 344